Weather History for KPGA - March, 2012

Change the Weather History Date:

Saturday, March 17, 2012

  Actual Average Record
Temperature  
Mean Temperature 61 °F -  
Max Temperature 70 °F 60 °F 77 °F (2007)
Min Temperature 52 °F 38 °F 27 °F (1969)
Degree Days  
Heating Degree Days 4    
Growing Degree Days 11 (Base 50)    
Moisture  
Dew Point 23 °F    
Average Humidity 25    
Maximum Humidity 53    
Minimum Humidity 15    
Precipitation  
Precipitation 0.00 in - - ()
Sea Level Pressure  
Sea Level Pressure 29.54 in    
Wind  
Wind Speed 10 mph (South)    
Max Wind Speed 22 mph    
Max Gust Speed 40 mph    
Visibility 10 miles    
Events Rain    
Averages and records for this station are not official NWS values.
T = Trace of Precipitation, MM = Missing Value Source: NWS Daily Summary

Daily Weather History Graph

Daily Weather History Graph

Search for Another Location

Airport or City:

Trip Planner

Search our weather history database for the weather conditions in past years. The results will help you decide how hot, cold, wet, or windy it might be!

Date:

Astronomy

Mar. 17, 2012 Rise Set
Actual Time 6:32 AM MST 6:35 PM MST
Civil Twilight 6:07 AM MST 7:01 PM MST
Nautical Twilight 5:36 AM MST 7:31 PM MST
Astronomical Twilight 5:06 AM MST 8:02 PM MST
Moon 3:30 AM MST (3/17) 2:09 PM MST (3/17)
Length of Visible Light 12h 54m
Length of Day
12h 02m
Waning Crescent, 22% of the Moon is Illuminated
Mar 17
Waning Crescent
Mar 22
New
Mar 30
First Quarter
Apr 6
Full
Apr 13
Last Quarter

Hourly Weather History & Observations

Time (MST) Temp. Dew Point Humidity Pressure Visibility Wind Dir Wind Speed Gust Speed Precip Events Conditions
12:53 AM 59.0 °F 23.0 °F 25% 29.65 in 10.0 mi SSW 3.5 mph - N/A   Clear
1:53 AM 57.9 °F 23.0 °F 26% 29.64 in 10.0 mi South 3.5 mph - N/A   Clear
2:53 AM 59.0 °F 23.0 °F 25% 29.62 in 10.0 mi SSW 3.5 mph - N/A   Clear
3:53 AM 55.9 °F 23.0 °F 28% 29.61 in 10.0 mi South 5.8 mph - N/A   Clear
4:53 AM 53.1 °F 21.9 °F 30% 29.62 in 10.0 mi SE 4.6 mph - N/A   Clear
5:53 AM 52.0 °F 21.0 °F 30% 29.62 in 10.0 mi South 4.6 mph - N/A   Clear
6:53 AM 55.0 °F 19.9 °F 25% 29.62 in 10.0 mi SSE 9.2 mph - N/A   Clear
7:53 AM 55.0 °F 21.0 °F 27% 29.61 in 10.0 mi Variable 4.6 mph - N/A   Clear
8:53 AM 57.9 °F 23.0 °F 26% 29.61 in 10.0 mi SSE 13.8 mph - N/A   Clear
9:53 AM 60.1 °F 23.0 °F 24% 29.61 in 10.0 mi South 18.4 mph 26.5 mph N/A   Clear
10:53 AM 63.0 °F 23.0 °F 22% 29.59 in 10.0 mi SSE 20.7 mph 27.6 mph N/A   Clear
11:53 AM 64.9 °F 23.0 °F 20% 29.57 in 10.0 mi SSE 19.6 mph 27.6 mph N/A   Clear
12:53 PM 66.9 °F 19.9 °F 17% 29.51 in 10.0 mi SE 20.7 mph 29.9 mph N/A   Clear
1:53 PM 70.0 °F 19.9 °F 15% 29.45 in 10.0 mi South 17.3 mph 26.5 mph N/A   Partly Cloudy
2:53 PM 69.1 °F 19.0 °F 15% 29.43 in 9.0 mi South 19.6 mph 40.3 mph N/A   Overcast
3:53 PM 68.0 °F 17.6 °F 15% 29.56 in 10.0 mi SSW 13.8 mph 29.9 mph N/A   Clear
4:53 PM 66.9 °F 18.0 °F 15% 29.43 in 10.0 mi South 18.4 mph 29.9 mph N/A   Clear
5:53 PM 64.0 °F 19.9 °F 18% 29.45 in 10.0 mi South 17.3 mph 26.5 mph N/A   Clear
6:53 PM 62.1 °F 19.9 °F 20% 29.44 in 10.0 mi South 16.1 mph 29.9 mph N/A   Clear
7:53 PM 59.0 °F 24.1 °F 26% 29.46 in 10.0 mi South 20.7 mph 28.8 mph N/A   Clear
8:53 PM 57.9 °F 25.0 °F 28% 29.46 in 10.0 mi South 19.6 mph 28.8 mph N/A   Clear
9:53 PM 57.9 °F 28.0 °F 32% 29.44 in 10.0 mi South 21.9 mph 28.8 mph N/A   Mostly Cloudy
10:53 PM 55.0 °F 33.1 °F 43% 29.44 in 10.0 mi South 13.8 mph 23.0 mph N/A   Overcast
11:53 PM 52.0 °F 35.1 °F 53% 29.41 in 10.0 mi South 13.8 mph - 0.00 in Rain Light Rain